SL-8 R/B

Satellite information

Favourite Embed

Satellite Type and Status

ROCKET BODYIN ORBIT

Key statistics

Satellite SL-8 R/B at a glance.

Uptime

6509

Days in orbit

Revolutions

≈ 13.8

Per day

Orbit

LEO

Low Earth Orbit

Inclination

83.0

Latest

Satellite identification and parameters

Extended collection of information and parameters for SL-8 R/B.

Object identification

Identified? True

Debris? False

Object name: SL-8 R/B

International designator: 2007-038B

Object number (NORAD): 32053

Object ID (CCSDS): 32053

Country: COMMONWEALTH OF INDEPENDENT STATES (CIS)

Current information (Y/N): Y

RCS size: LARGE

Orbital parameters

Period: 104.611 minutes

Inclination: 82.9784 deg

SMA: 7354.341 km

Apoapsis: 996.646 km

Periapsis: 955.767 km

RAAN: 89.1668 deg

Eccentricy: 0.0027792

Argument of periapsis: 99.4631 deg

Mean anomaly: 15.2988 deg

Mean motion: 13.76534463 rev/day

Mean motion (dot): 0.00000048 rev/day2

B* drag term: 0.000033259 1/REarth

Two-line elements (TLE)

Creation date: July 5, 2025, 5:45 p.m.

Reference frame: TEME

Reference center: EARTH

Epoch: July 5, 2025, 6:32 a.m. UTC

TLE line 0: 0 SL-8 R/B

TLE line 1: 1 32053U 07038B 25186.27269140 .00000048 00000-0 33259-4 0 9992

TLE line 2: 2 32053 82.9784 89.1668 0027792 99.4631 15.2988 13.76534463894927

Live tracking on map

Real-time ground track for satellite SL-8 R/B.

In-orbit conjunctions

A list of the most updated potential collisions computed for object SL-8 R/B.

Target Orbit TCA Probability of collision Miss distance Type
FENGYUN 1C DEB SSO 2025-04-05 03:48:15 0.000890086 154.0 (m) DEBRIS
COSMOS 1275 DEB LEO 2025-01-16 11:44:34 0.001025195 48.0 (m) DEBRIS

Associated space launch

Navigation satellite providing location information for the Tsiklon-B navigation system

SL-8 R/B was lifted into orbit during the mission ‘Kosmos-3M | Parus 97’, on board a Kosmos-3M space rocket.

The launch took place on Sept. 11, 2007, 1:05 p.m. from 132/1 (132L).

For more information about the launch, click the button.

Launch to space Kosmos-3M | Parus 97
Kosmos-3M | Parus 97

Agency: N/A

Status: Launch Successful

Launch date: Sept. 11, 2007, 1:05 p.m. UTC

Rocket: Kosmos-3M

Launch pad: 132/1 (132L)

Location: Plesetsk Cosmodrome, Russian Federation

...

Latest news about this satellite

There are no fresh news available about this satellite. Check back as we update our databases every day.


Newsletter sign-up

Weekly statistics, charts and insights to help you stay on top of the space industry.